[Date Prev][Date Next][Thread Prev][Thread Next] - [Date Index][Thread Index][Author Index]

2 Line ISS Keps 4-30



ISS
1 25544U 98067A   04121.38683880  .00021045  00000-0  18265-3 0  6761
2 25544  51.6279 209.3838 0011143  84.3755  41.7228 15.68992902310815


----
Via the sarex mailing list at AMSAT.ORG courtesy of AMSAT-NA.
To unsubscribe, send "unsubscribe sarex" to Majordomo@amsat.org



AMSAT Top AMSAT Home